This is the latest recevied weather packets stored in our database for station/object K7TSD. If no packets are shown the sender has not sent any weather packets the latest 1 day(s).
| Time | Temp. | Humidity | Pressure | Rain* | Wind** | Luminosity | Snow |
|---|---|---|---|---|---|---|---|
| 1778034381 | 1.67° C | 59% | 1014.6 hPa | 0 mm | - | 0 W/m² | - |
| 1778034078 | 1.67° C | 58% | 1014.4 hPa | 0 mm | - | 0 W/m² | - |
| 1778033776 | 1.67° C | 59% | 1014.3 hPa | 0 mm | - | 0 W/m² | - |
| 1778033473 | 1.67° C | 59% | 1014.3 hPa | 0 mm | - | 3 W/m² | - |
| 1778033170 | 1.67° C | 60% | 1014 hPa | 0 mm | - | 5 W/m² | - |
| 1778032868 | 1.67° C | 59% | 1014.3 hPa | 0 mm | - | 9 W/m² | - |
| 1778032565 | 1.67° C | 60% | 1014 hPa | 0 mm | - | 12 W/m² | - |
| 1778032262 | 1.67° C | 60% | 1014 hPa | 0 mm | - | 16 W/m² | - |
| 1778031959 | 1.67° C | 59% | 1013.8 hPa | 0 mm | - | 19 W/m² | - |
| 1778031654 | 1.67° C | 59% | 1013.8 hPa | 0 mm | - | 22 W/m² | - |
| 1778031353 | 2.22° C | 60% | 1013.5 hPa | 0 mm | - | 26 W/m² | - |
| 1778030443 | 2.22° C | 61% | 1014 hPa | 0 mm | - | 53 W/m² | - |
| 1778030141 | 2.22° C | 60% | 1013.8 hPa | 0 mm | - | 52 W/m² | - |
| 1778029536 | 2.22° C | 60% | 1013.7 hPa | 0 mm | - | 45 W/m² | - |
| 1778028323 | 2.78° C | 64% | 1013.4 hPa | 0 mm | - | 64 W/m² | - |
| 1778027716 | 2.78° C | 63% | 1013.4 hPa | 0 mm | - | 108 W/m² | - |
| 1778027412 | 2.78° C | 61% | 1013.4 hPa | 0 mm | - | 264 W/m² | - |
| 1778026198 | 2.78° C | 61% | 1012.8 hPa | 0 mm | - | 118 W/m² | - |
| 1778025291 | 3.33° C | 61% | 1012.8 hPa | 0 mm | - | 95 W/m² | - |
| 1778024987 | 3.33° C | 62% | 1012.7 hPa | 0 mm | - | 156 W/m² | - |
| 1778022868 | 2.78° C | 68% | 1012.3 hPa | 0 mm | - | 167 W/m² | - |
| 1778022566 | 2.78° C | 69% | 1012.5 hPa | 0 mm | - | 201 W/m² | - |
* Rain latest hour (hover to see other rain measurements)
** Current wind speed in m/s (hover to see current wind gust speed)